| time (UTC) | temp F | wind direction | speed knots | gust knots | rain 1hr in | rain 24hr in | rain mn in | humidity % | barometer mb |
| 20260831225100 | 97 | 166 | 7.8 | 13.0 | 0.00 | 0.00 | 0.00 | 21 | 1009.1 |
| 20260831224558 | 97 | 189 | 5.2 | 11.3 | 0.00 | 0.00 | 0.00 | 21 | 1009.2 |
| 20260831224058 | 97 | 150 | 6.1 | 12.2 | 0.00 | 0.00 | 0.00 | 20 | 1009.2 |
| 20260831223557 | 97 | 145 | 4.3 | 12.2 | 0.00 | 0.00 | 0.00 | 21 | 1009.2 |
| 20260831223108 | 97 | 157 | 3.5 | 9.6 | 0.00 | 0.00 | 0.00 | 21 | 1009.2 |
| 20260831222557 | 97 | 204 | 5.2 | 10.4 | 0.00 | 0.00 | 0.00 | 22 | 1009.2 |
| 20260831222055 | 96 | 206 | 6.1 | 12.2 | 0.00 | 0.00 | 0.00 | 22 | 1009.2 |
| 20260831221558 | 96 | 158 | 7.0 | 12.2 | 0.00 | 0.00 | 0.00 | 21 | 1009.3 |
| 20260831221054 | 96 | 202 | 4.3 | 10.4 | 0.00 | 0.00 | 0.00 | 22 | 1009.3 |
| 20260831220554 | 96 | 191 | 5.2 | 9.6 | 0.00 | 0.00 | 0.00 | 22 | 1009.3 |
| 20260831220053 | 96 | 182 | 7.8 | 12.2 | 0.00 | 0.00 | 0.00 | 23 | 1009.3 |
| 20260831215054 | 96 | 87 | 3.5 | 9.6 | 0.00 | 0.00 | 0.00 | 23 | 1009.4 |
| 20260831214604 | 96 | 149 | 4.3 | 10.4 | 0.00 | 0.00 | 0.00 | 23 | 1009.6 |
| 20260831214053 | 96 | 181 | 6.1 | 10.4 | 0.00 | 0.00 | 0.00 | 22 | 1009.8 |
| 20260831213552 | 96 | 146 | 4.3 | 10.4 | 0.00 | 0.00 | 0.00 | 23 | 1009.8 |
| 20260831213051 | 96 | 202 | 7.8 | 13.0 | 0.00 | 0.00 | 0.00 | 23 | 1009.9 |
| 20260831212550 | 97 | 200 | 7.0 | 13.0 | 0.00 | 0.00 | 0.00 | 22 | 1010.0 |
| 20260831212049 | 96 | 209 | 6.1 | 13.0 | 0.00 | 0.00 | 0.00 | 23 | 1010.1 |
| 20260831211550 | 96 | 193 | 7.8 | 13.0 | 0.00 | 0.00 | 0.00 | 23 | 1010.0 |
| 20260831211049 | 95 | 244 | 5.2 | 10.4 | 0.00 | 0.00 | 0.00 | 24 | 1010.0 |
| 20260831210550 | 95 | 217 | 4.3 | 12.2 | 0.00 | 0.00 | 0.00 | 24 | 1010.1 |
| 20260831210047 | 95 | 192 | 3.5 | 13.0 | 0.00 | 0.00 | 0.00 | 24 | 1010.4 |
| 20260831205046 | 95 | 192 | 7.8 | 13.0 | 0.00 | 0.00 | 0.00 | 24 | 1010.4 |
| 20260831204545 | 95 | 187 | 5.2 | 13.9 | 0.00 | 0.00 | 0.00 | 24 | 1010.6 |
| 20260831204045 | 96 | 187 | 8.7 | 13.9 | 0.00 | 0.00 | 0.00 | 24 | 1010.6 |
| 20260831203545 | 96 | 193 | 7.0 | 13.0 | 0.00 | 0.00 | 0.00 | 24 | 1010.6 |
| 20260831203046 | 96 | 158 | 7.8 | 12.2 | 0.00 | 0.00 | 0.00 | 24 | 1010.8 |
| 20260831202544 | 95 | 159 | 7.0 | 13.0 | 0.00 | 0.00 | 0.00 | 25 | 1010.9 |
| 20260831202042 | 96 | 200 | 8.7 | 14.8 | 0.00 | 0.00 | 0.00 | 26 | 1011.0 |
| 20260831201542 | 95 | 195 | 6.1 | 14.8 | 0.00 | 0.00 | 0.00 | 25 | 1011.1 |
| 20260831201041 | 95 | 186 | 6.1 | 13.0 | 0.00 | 0.00 | 0.00 | 25 | 1011.1 |
| 20260831200540 | 95 | 190 | 6.1 | 11.3 | 0.00 | 0.00 | 0.00 | 25 | 1011.2 |
| 20260831200043 | 95 | 177 | 7.0 | 13.0 | 0.00 | 0.00 | 0.00 | 26 | 1011.3 |
| 20260831195041 | 95 | 193 | 5.2 | 13.9 | 0.00 | 0.00 | 0.00 | 26 | 1011.3 |
| 20260831194557 | 95 | 222 | 7.8 | 13.9 | 0.00 | 0.00 | 0.00 | 25 | 1011.4 |
| 20260831194039 | 95 | 216 | 6.1 | 13.0 | 0.00 | 0.00 | 0.00 | 25 | 1011.4 |
| 20260831193539 | 95 | 189 | 8.7 | 13.0 | 0.00 | 0.00 | 0.00 | 25 | 1011.5 |
| 20260831193040 | 95 | 174 | 8.7 | 12.2 | 0.00 | 0.00 | 0.00 | 26 | 1011.4 |
| 20260831192539 | 94 | 166 | 6.1 | 19.1 | 0.00 | 0.00 | 0.00 | 27 | 1011.4 |
| 20260831192038 | 94 | 210 | 9.6 | 19.1 | 0.00 | 0.00 | 0.00 | 27 | 1011.4 |
| 20260831191538 | 95 | 205 | 8.7 | 13.0 | 0.00 | 0.00 | 0.00 | 26 | 1011.5 |
| 20260831191043 | 95 | 143 | 6.1 | 13.9 | 0.00 | 0.00 | 0.00 | 27 | 1011.7 |
| 20260831190536 | 94 | 196 | 7.8 | 13.9 | 0.00 | 0.00 | 0.00 | 28 | 1011.7 |
| 20260831190035 | 94 | 184 | 10.4 | 15.6 | 0.00 | 0.00 | 0.00 | 29 | 1011.7 |
| 20260831185033 | 93 | 200 | 8.7 | 14.8 | 0.00 | 0.00 | 0.00 | 29 | 1011.7 |
| 20260831184532 | 93 | 219 | 7.8 | 16.5 | 0.00 | 0.00 | 0.00 | 27 | 1011.8 |
| 20260831184032 | 93 | 205 | 9.6 | 15.6 | 0.00 | 0.00 | 0.00 | 29 | 1011.8 |
| 20260831183531 | 93 | 182 | 9.6 | 15.6 | 0.00 | 0.00 | 0.00 | 29 | 1011.9 |
| 20260831183034 | 93 | 122 | 6.1 | 15.6 | 0.00 | 0.00 | 0.00 | 30 | 1012.0 |
| 20260831182530 | 93 | 156 | 10.4 | 15.6 | 0.00 | 0.00 | 0.00 | 30 | 1012.1 |
| 20260831182028 | 92 | 200 | 9.6 | 15.6 | 0.00 | 0.00 | 0.00 | 32 | 1012.2 |
| 20260831181527 | 92 | 166 | 9.6 | 14.8 | 0.00 | 0.00 | 0.00 | 32 | 1012.2 |
| 20260831181026 | 92 | 187 | 8.7 | 13.9 | 0.00 | 0.00 | 0.00 | 34 | 1012.2 |
| 20260831180525 | 91 | 214 | 5.2 | 16.5 | 0.00 | 0.00 | 0.00 | 36 | 1012.4 |
| 20260831180025 | 91 | 189 | 6.1 | 15.6 | 0.00 | 0.00 | 0.00 | 35 | 1012.4 |
| 20260831175023 | 91 | 243 | 8.7 | 16.5 | 0.00 | 0.00 | 0.00 | 35 | 1012.5 |
| 20260831174522 | 91 | 206 | 9.6 | 16.5 | 0.00 | 0.00 | 0.00 | 35 | 1012.5 |
| 20260831174022 | 90 | 204 | 10.4 | 15.6 | 0.00 | 0.00 | 0.00 | 37 | 1012.7 |
| 20260831173525 | 90 | 165 | 7.0 | 15.6 | 0.00 | 0.00 | 0.00 | 38 | 1012.7 |
| 20260831173021 | 90 | 205 | 7.8 | 15.6 | 0.00 | 0.00 | 0.00 | 38 | 1012.7 |
| 20260831172523 | 90 | 189 | 7.0 | 15.6 | 0.00 | 0.00 | 0.00 | 39 | 1012.7 |
| 20260831172022 | 89 | 177 | 9.6 | 15.6 | 0.00 | 0.00 | 0.00 | 39 | 1012.8 |
| 20260831171519 | 89 | 198 | 7.8 | 13.0 | 0.00 | 0.00 | 0.00 | 40 | 1012.8 |
| 20260831171017 | 89 | 206 | 7.8 | 14.8 | 0.00 | 0.00 | 0.00 | 41 | 1012.8 |
| 20260831170517 | 89 | 196 | 9.6 | 14.8 | 0.00 | 0.00 | 0.00 | 41 | 1012.9 |
| 20260831170033 | 88 | 162 | 7.8 | 17.4 | 0.00 | 0.00 | 0.00 | 43 | 1012.9 |
| 20260831165117 | 88 | 148 | 7.0 | 12.2 | 0.00 | 0.00 | 0.00 | 43 | 1013.1 |
| 20260831164521 | 88 | 189 | 8.7 | 13.0 | 0.00 | 0.00 | 0.00 | 43 | 1013.1 |
| 20260831164019 | 87 | 205 | 7.0 | 13.9 | 0.00 | 0.00 | 0.00 | 44 | 1013.2 |
| 20260831163514 | 87 | 200 | 7.8 | 13.9 | 0.00 | 0.00 | 0.00 | 44 | 1013.1 |
| 20260831163016 | 86 | 187 | 7.8 | 13.0 | 0.00 | 0.00 | 0.00 | 45 | 1013.1 |
| 20260831162513 | 86 | 181 | 5.2 | 12.2 | 0.00 | 0.00 | 0.00 | 46 | 1013.0 |
| 20260831162013 | 86 | 156 | 7.8 | 13.0 | 0.00 | 0.00 | 0.00 | 46 | 1013.1 |
| 20260831161510 | 85 | 205 | 7.0 | 13.0 | 0.00 | 0.00 | 0.00 | 47 | 1013.2 |
| 20260831161010 | 85 | 206 | 7.8 | 12.2 | 0.00 | 0.00 | 0.00 | 47 | 1013.1 |
| 20260831160510 | 85 | 203 | 6.1 | 13.0 | 0.00 | 0.00 | 0.00 | 48 | 1013.1 |
| 20260831160012 | 84 | 174 | 6.1 | 12.2 | 0.00 | 0.00 | 0.00 | 49 | 1013.2 |
| 20260831155008 | 84 | 149 | 6.1 | 13.9 | 0.00 | 0.00 | 0.00 | 49 | 1013.1 |
| 20260831154518 | 84 | 212 | 8.7 | 13.9 | 0.00 | 0.00 | 0.00 | 50 | 1013.1 |
| 20260831154005 | 83 | 173 | 5.2 | 12.2 | 0.00 | 0.00 | 0.00 | 50 | 1013.1 |
| 20260831153504 | 83 | 196 | 7.0 | 12.2 | 0.00 | 0.00 | 0.00 | 51 | 1013.3 |
| 20260831153003 | 82 | 196 | 7.0 | 12.2 | 0.00 | 0.00 | 0.00 | 51 | 1013.3 |
| 20260831152503 | 82 | 190 | 7.8 | 12.2 | 0.00 | 0.00 | 0.00 | 51 | 1013.2 |
| 20260831152005 | 82 | 189 | 7.0 | 12.2 | 0.00 | 0.00 | 0.00 | 52 | 1013.3 |
| 20260831151504 | 82 | 190 | 7.8 | 12.2 | 0.00 | 0.00 | 0.00 | 52 | 1013.3 |
| 20260831151003 | 82 | 177 | 6.1 | 12.2 | 0.00 | 0.00 | 0.00 | 53 | 1013.3 |
| 20260831150503 | 82 | 191 | 7.8 | 12.2 | 0.00 | 0.00 | 0.00 | 53 | 1013.3 |
| 20260831150003 | 81 | 196 | 8.7 | 13.0 | 0.00 | 0.00 | 0.00 | 54 | 1013.2 |
| 20260831145003 | 81 | 199 | 8.7 | 12.2 | 0.00 | 0.00 | 0.00 | 54 | 1013.3 |
| 20260831144604 | 81 | 151 | 6.1 | 10.4 | 0.00 | 0.00 | 0.00 | 54 | 1013.1 |
| 20260831144004 | 80 | 176 | 6.1 | 11.3 | 0.00 | 0.00 | 0.00 | 55 | 1013.3 |
| 20260831143502 | 80 | 200 | 5.2 | 12.2 | 0.00 | 0.00 | 0.00 | 56 | 1013.3 |
| 20260831143002 | 80 | 213 | 7.0 | 12.2 | 0.00 | 0.00 | 0.00 | 56 | 1013.4 |
| 20260831142502 | 80 | 211 | 6.1 | 13.9 | 0.00 | 0.00 | 0.00 | 56 | 1013.3 |
| 20260831142000 | 79 | 203 | 6.1 | 13.9 | 0.00 | 0.00 | 0.00 | 57 | 1013.2 |
| 20260831141501 | 79 | 166 | 6.1 | 13.0 | 0.00 | 0.00 | 0.00 | 57 | 1013.1 |
| 20260831141000 | 79 | 189 | 7.8 | 13.0 | 0.00 | 0.00 | 0.00 | 57 | 1013.2 |
| 20260831140600 | 79 | 146 | 6.1 | 12.2 | 0.00 | 0.00 | 0.00 | 58 | 1013.1 |
| 20260831140100 | 79 | 193 | 5.2 | 12.2 | 0.00 | 0.00 | 0.00 | 58 | 1013.1 |
| 20260831135000 | 78 | 180 | 8.7 | 13.0 | 0.00 | 0.00 | 0.00 | 58 | 1013.0 |
| 20260831134501 | 78 | 201 | 7.8 | 12.2 | 0.00 | 0.00 | 0.00 | 59 | 1013.1 |
| 20260831134100 | 78 | 189 | 6.1 | 10.4 | 0.00 | 0.00 | 0.00 | 59 | 1013.2 |
| 20260831133559 | 78 | 193 | 6.1 | 12.2 | 0.00 | 0.00 | 0.00 | 59 | 1013.0 |
| 20260831133159 | 78 | 201 | 7.0 | 12.2 | 0.00 | 0.00 | 0.00 | 59 | 1013.0 |
| 20260831132558 | 78 | 163 | 7.0 | 12.2 | 0.00 | 0.00 | 0.00 | 59 | 1012.9 |
| 20260831132058 | 78 | 191 | 6.1 | 13.0 | 0.00 | 0.00 | 0.00 | 59 | 1012.9 |
| 20260831131559 | 78 | 161 | 6.1 | 13.0 | 0.00 | 0.00 | 0.00 | 59 | 1012.9 |
| 20260831131057 | 77 | 181 | 5.2 | 12.2 | 0.00 | 0.00 | 0.00 | 60 | 1012.7 |
| 20260831130555 | 77 | 193 | 7.0 | 12.2 | 0.00 | 0.00 | 0.00 | 60 | 1012.7 |
| 20260831130100 | 77 | 195 | 5.2 | 11.3 | 0.00 | 0.00 | 0.00 | 60 | 1012.7 |
| 20260831125051 | 77 | 154 | 5.2 | 8.7 | 0.00 | 0.00 | 0.00 | 60 | 1012.7 |
| 20260831124558 | 77 | 180 | 4.3 | 8.7 | 0.00 | 0.00 | 0.00 | 60 | 1012.6 |
| 20260831124049 | 77 | 168 | 4.3 | 7.8 | 0.00 | 0.00 | 0.00 | 60 | 1012.6 |
| 20260831123547 | 77 | 180 | 3.5 | 7.8 | 0.00 | 0.00 | 0.00 | 60 | 1012.5 |
| 20260831123047 | 77 | 160 | 3.5 | 7.0 | 0.00 | 0.00 | 0.00 | 59 | 1012.5 |
| 20260831122550 | 77 | 122 | 2.6 | 5.2 | 0.00 | 0.00 | 0.00 | 59 | 1012.5 |
| 20260831122046 | 77 | 182 | 0.9 | 4.3 | 0.00 | 0.00 | 0.00 | 59 | 1012.4 |
| 20260831121546 | 77 | 182 | 1.7 | 7.0 | 0.00 | 0.00 | 0.00 | 59 | 1012.4 |
| 20260831121045 | 78 | 184 | 2.6 | 7.8 | 0.00 | 0.00 | 0.00 | 59 | 1012.2 |
| 20260831120544 | 78 | 175 | 3.5 | 7.8 | 0.00 | 0.00 | 0.00 | 59 | 1012.2 |
| 20260831120044 | 78 | 196 | 2.6 | 7.8 | 0.00 | 0.00 | 0.00 | 58 | 1012.1 |
| 20260831115043 | 78 | 163 | 3.5 | 7.0 | 0.00 | 0.00 | 0.00 | 58 | 1012.2 |
| 20260831114542 | 78 | 181 | 3.5 | 9.6 | 0.00 | 0.00 | 0.00 | 58 | 1012.1 |
| 20260831114042 | 78 | 190 | 3.5 | 9.6 | 0.00 | 0.00 | 0.00 | 57 | 1012.2 |
| 20260831113539 | 78 | 177 | 3.5 | 7.8 | 0.00 | 0.00 | 0.00 | 57 | 1012.1 |
| 20260831113038 | 78 | 172 | 3.5 | 9.6 | 0.00 | 0.00 | 0.00 | 57 | 1012.3 |
| 20260831112537 | 78 | 202 | 5.2 | 9.6 | 0.00 | 0.00 | 0.00 | 57 | 1012.3 |
| 20260831112043 | 78 | 165 | 3.5 | 9.6 | 0.00 | 0.00 | 0.00 | 56 | 1012.1 |
| 20260831111539 | 79 | 175 | 5.2 | 10.4 | 0.00 | 0.00 | 0.00 | 56 | 1012.2 |
| 20260831111035 | 79 | 151 | 5.2 | 9.6 | 0.00 | 0.00 | 0.00 | 56 | 1012.1 |
| 20260831110535 | 79 | 194 | 6.1 | 9.6 | 0.00 | 0.00 | 0.00 | 56 | 1012.2 |
| 20260831110034 | 79 | 199 | 5.2 | 12.2 | 0.00 | 0.00 | 0.00 | 55 | 1012.2 |
| 20260831105034 | 79 | 193 | 5.2 | 12.2 | 0.00 | 0.00 | 0.00 | 55 | 1012.0 |
| 20260831104537 | 79 | 210 | 7.0 | 10.4 | 0.00 | 0.00 | 0.00 | 54 | 1011.9 |
| 20260831104032 | 79 | 189 | 3.5 | 9.6 | 0.00 | 0.00 | 0.00 | 54 | 1011.9 |
| 20260831103534 | 79 | 191 | 4.3 | 10.4 | 0.00 | 0.00 | 0.00 | 53 | 1012.0 |
| 20260831103032 | 80 | 195 | 4.3 | 10.4 | 0.00 | 0.00 | 0.00 | 53 | 1012.1 |
| 20260831102533 | 80 | 199 | 4.3 | 10.4 | 0.00 | 0.00 | 0.00 | 53 | 1012.0 |
| 20260831102033 | 80 | 181 | 6.1 | 15.6 | 0.00 | 0.00 | 0.00 | 52 | 1012.0 |
| 20260831101530 | 80 | 210 | 8.7 | 15.6 | 0.00 | 0.00 | 0.00 | 52 | 1012.0 |
| 20260831101029 | 80 | 192 | 5.2 | 11.3 | 0.00 | 0.00 | 0.00 | 51 | 1012.0 |
| 20260831100529 | 80 | 197 | 7.0 | 11.3 | 0.00 | 0.00 | 0.00 | 51 | 1012.0 |
| 20260831100029 | 80 | 187 | 6.1 | 9.6 | 0.00 | 0.00 | 0.00 | 50 | 1012.0 |
| 20260831095027 | 80 | 206 | 7.0 | 13.0 | 0.00 | 0.00 | 0.00 | 49 | 1012.0 |
| 20260831094532 | 80 | 189 | 5.2 | 11.3 | 0.00 | 0.00 | 0.00 | 48 | 1011.9 |
| 20260831094027 | 80 | 191 | 5.2 | 9.6 | 0.00 | 0.00 | 0.00 | 48 | 1012.0 |
| 20260831093526 | 81 | 189 | 4.3 | 9.6 | 0.00 | 0.00 | 0.00 | 47 | 1011.9 |
| 20260831093031 | 81 | 185 | 5.2 | 9.6 | 0.00 | 0.00 | 0.00 | 47 | 1011.9 |
| 20260831092526 | 81 | 191 | 5.2 | 9.6 | 0.00 | 0.00 | 0.00 | 47 | 1011.9 |
| 20260831092027 | 81 | 173 | 4.3 | 8.7 | 0.00 | 0.00 | 0.00 | 46 | 1011.9 |
| 20260831091524 | 81 | 172 | 3.5 | 11.3 | 0.00 | 0.00 | 0.00 | 46 | 1011.9 |
| 20260831091024 | 81 | 153 | 5.2 | 14.8 | 0.00 | 0.00 | 0.00 | 46 | 1011.8 |
| 20260831090524 | 81 | 178 | 6.1 | 14.8 | 0.00 | 0.00 | 0.00 | 45 | 1011.8 |
| 20260831090023 | 81 | 175 | 6.1 | 10.4 | 0.00 | 0.00 | 0.00 | 44 | 1011.9 |
| 20260831085023 | 81 | 191 | 4.3 | 8.7 | 0.00 | 0.00 | 0.00 | 43 | 1011.9 |
| 20260831084534 | 81 | 188 | 5.2 | 10.4 | 0.00 | 0.00 | 0.00 | 43 | 1011.9 |
| 20260831084021 | 82 | 178 | 4.3 | 10.4 | 0.00 | 0.00 | 0.00 | 42 | 1011.9 |
| 20260831083521 | 82 | 191 | 4.3 | 9.6 | 0.00 | 0.00 | 0.00 | 42 | 1012.0 |
| 20260831083036 | 82 | 195 | 4.3 | 9.6 | 0.00 | 0.00 | 0.00 | 42 | 1012.0 |
| 20260831082521 | 82 | 187 | 6.1 | 9.6 | 0.00 | 0.00 | 0.00 | 41 | 1011.9 |
| 20260831082020 | 82 | 198 | 4.3 | 9.6 | 0.00 | 0.00 | 0.00 | 41 | 1011.9 |
| 20260831081522 | 82 | 190 | 5.2 | 9.6 | 0.00 | 0.00 | 0.00 | 41 | 1011.8 |
| 20260831081024 | 82 | 196 | 4.3 | 9.6 | 0.00 | 0.00 | 0.00 | 41 | 1011.8 |
| 20260831080521 | 82 | 182 | 4.3 | 8.7 | 0.00 | 0.00 | 0.00 | 41 | 1011.7 |
| 20260831080027 | 82 | 189 | 4.3 | 7.8 | 0.00 | 0.00 | 0.00 | 41 | 1011.8 |
| 20260831075019 | 81 | 183 | 4.3 | 7.8 | 0.00 | 0.00 | 0.00 | 41 | 1012.0 |
| 20260831074520 | 81 | 198 | 3.5 | 7.8 | 0.00 | 0.00 | 0.00 | 41 | 1012.0 |
| 20260831074022 | 81 | 192 | 2.6 | 5.2 | 0.00 | 0.00 | 0.00 | 41 | 1012.1 |
| 20260831073520 | 81 | 172 | 2.6 | 3.5 | 0.00 | 0.00 | 0.00 | 40 | 1012.1 |
| 20260831073020 | 81 | 175 | 1.7 | 4.3 | 0.00 | 0.00 | 0.00 | 40 | 1012.1 |
| 20260831072518 | 81 | 175 | 2.6 | 5.2 | 0.00 | 0.00 | 0.00 | 40 | 1012.1 |
| 20260831072018 | 81 | 175 | 2.6 | 5.2 | 0.00 | 0.00 | 0.00 | 39 | 1011.9 |
| 20260831071516 | 81 | 180 | 2.6 | 4.3 | 0.00 | 0.00 | 0.00 | 39 | 1012.0 |
| 20260831071016 | 82 | 179 | 1.7 | 3.5 | 0.00 | 0.00 | 0.00 | 39 | 1011.9 |
| 20260831070515 | 82 | 179 | 1.7 | 4.3 | 0.00 | 0.00 | 0.00 | 38 | 1012.0 |
| 20260831070016 | 82 | 179 | 1.7 | 4.3 | 0.00 | 0.00 | 0.00 | 38 | 1011.9 |
| 20260831065016 | 82 | 177 | 1.7 | 4.3 | 0.00 | 0.00 | 0.00 | 38 | 1012.0 |
| 20260831064516 | 82 | 177 | 1.7 | 4.3 | 0.00 | 0.00 | 0.00 | 38 | 1012.0 |
| 20260831064015 | 82 | 173 | 1.7 | 3.5 | 0.00 | 0.00 | 0.00 | 38 | 1012.0 |
| 20260831063513 | 82 | 173 | 0.9 | 3.5 | 0.00 | 0.00 | 0.00 | 37 | 1012.0 |
| 20260831063013 | 82 | 173 | 1.7 | 3.5 | 0.00 | 0.00 | 0.00 | 37 | 1012.0 |
| 20260831062512 | 82 | 173 | 0.9 | 2.6 | 0.00 | 0.00 | 0.00 | 37 | 1012.0 |
| 20260831062012 | 83 | 173 | 0.9 | 3.5 | 0.00 | 0.00 | 0.00 | 37 | 1012.0 |
| 20260831061511 | 83 | 173 | 1.7 | 3.5 | 0.00 | 0.00 | 0.00 | 36 | 1011.9 |
| 20260831061011 | 83 | 173 | 1.7 | 3.5 | 0.00 | 0.00 | 0.00 | 36 | 1012.0 |
| 20260831060510 | 83 | 172 | 1.7 | 3.5 | 0.00 | 0.00 | 0.00 | 36 | 1012.0 |
| 20260831060009 | 84 | 165 | 0.9 | 3.5 | 0.00 | 0.00 | 0.00 | 35 | 1011.8 |
| 20260831055008 | 84 | 165 | 0.9 | 3.5 | 0.00 | 0.00 | 0.00 | 35 | 1011.8 |
| 20260831054508 | 84 | 164 | 0.9 | 3.5 | 0.00 | 0.00 | 0.00 | 35 | 1011.8 |
| 20260831054007 | 84 | 164 | 1.7 | 3.5 | 0.00 | 0.00 | 0.00 | 34 | 1011.8 |
| 20260831053507 | 84 | 164 | 1.7 | 4.3 | 0.00 | 0.00 | 0.00 | 34 | 1011.8 |
| 20260831053007 | 84 | 160 | 2.6 | 4.3 | 0.00 | 0.00 | 0.00 | 34 | 1011.9 |
| 20260831052506 | 85 | 163 | 2.6 | 4.3 | 0.00 | 0.00 | 0.00 | 34 | 1011.9 |
| 20260831052007 | 85 | 162 | 1.7 | 4.3 | 0.00 | 0.00 | 0.00 | 33 | 1011.8 |
| 20260831051508 | 85 | 169 | 1.7 | 4.3 | 0.00 | 0.00 | 0.00 | 33 | 1011.8 |
| 20260831051004 | 85 | 169 | 1.7 | 5.2 | 0.00 | 0.00 | 0.00 | 32 | 1011.8 |
| 20260831050501 | 86 | 171 | 1.7 | 5.2 | 0.00 | 0.00 | 0.00 | 32 | 1011.7 |
| 20260831050100 | 86 | 164 | 2.6 | 7.0 | 0.00 | 0.00 | 0.00 | 32 | 1011.7 |
| 20260831045001 | 87 | 195 | 4.3 | 10.4 | 0.00 | 0.00 | 0.00 | 31 | 1011.7 |
| 20260831044607 | 87 | 188 | 5.2 | 10.4 | 0.00 | 0.00 | 0.00 | 31 | 1011.7 |
| 20260831044101 | 87 | 199 | 5.2 | 8.7 | 0.00 | 0.00 | 0.00 | 30 | 1011.6 |
| 20260831043559 | 87 | 198 | 5.2 | 9.6 | 0.00 | 0.00 | 0.00 | 30 | 1011.6 |
| 20260831043100 | 87 | 206 | 6.1 | 9.6 | 0.00 | 0.00 | 0.00 | 30 | 1011.5 |
| 20260831042602 | 87 | 201 | 5.2 | 12.2 | 0.00 | 0.00 | 0.00 | 30 | 1011.4 |
| 20260831042059 | 88 | 200 | 7.0 | 12.2 | 0.00 | 0.00 | 0.00 | 30 | 1011.4 |
| 20260831041659 | 88 | 193 | 7.0 | 12.2 | 0.00 | 0.00 | 0.00 | 30 | 1011.3 |
| 20260831041100 | 88 | 191 | 6.1 | 12.2 | 0.00 | 0.00 | 0.00 | 29 | 1011.3 |
| 20260831040559 | 88 | 199 | 6.1 | 13.0 | 0.00 | 0.00 | 0.00 | 29 | 1011.2 |
| 20260831040059 | 88 | 222 | 6.1 | 10.4 | 0.00 | 0.00 | 0.00 | 29 | 1011.3 |
| 20260831035007 | 88 | 183 | 6.1 | 10.4 | 0.00 | 0.00 | 0.00 | 29 | 1011.2 |
| 20260831034507 | 88 | 185 | 4.3 | 8.7 | 0.00 | 0.00 | 0.00 | 29 | 1011.1 |
| 20260831034006 | 88 | 190 | 3.5 | 8.7 | 0.00 | 0.00 | 0.00 | 29 | 1011.1 |
| 20260831033506 | 88 | 200 | 4.3 | 7.8 | 0.00 | 0.00 | 0.00 | 29 | 1011.0 |
| 20260831033007 | 88 | 190 | 4.3 | 7.8 | 0.00 | 0.00 | 0.00 | 28 | 1010.9 |
| 20260831032507 | 88 | 187 | 3.5 | 7.8 | 0.00 | 0.00 | 0.00 | 28 | 1010.8 |
| 20260831032007 | 88 | 194 | 2.6 | 7.8 | 0.00 | 0.00 | 0.00 | 28 | 1010.8 |
| 20260831031515 | 89 | 189 | 3.5 | 7.8 | 0.00 | 0.00 | 0.00 | 28 | 1010.8 |
| 20260831031006 | 89 | 196 | 2.6 | 7.0 | 0.00 | 0.00 | 0.00 | 28 | 1010.7 |
| 20260831030507 | 89 | 175 | 3.5 | 7.0 | 0.00 | 0.00 | 0.00 | 28 | 1010.6 |
| 20260831030006 | 89 | 191 | 2.6 | 7.0 | 0.00 | 0.00 | 0.00 | 28 | 1010.7 |
| 20260831025057 | 89 | 187 | 3.5 | 7.0 | 0.00 | 0.00 | 0.00 | 28 | 1010.6 |
| 20260831024604 | 89 | 191 | 2.6 | 5.2 | 0.00 | 0.00 | 0.00 | 28 | 1010.5 |
| 20260831024058 | 89 | 191 | 2.6 | 5.2 | 0.00 | 0.00 | 0.00 | 27 | 1010.4 |
| 20260831023557 | 90 | 194 | 2.6 | 5.2 | 0.00 | 0.00 | 0.00 | 27 | 1010.3 |
| 20260831023057 | 90 | 193 | 2.6 | 7.0 | 0.00 | 0.00 | 0.00 | 27 | 1010.0 |
| 20260831022556 | 90 | 187 | 3.5 | 8.7 | 0.00 | 0.00 | 0.00 | 27 | 1009.9 |
| 20260831022057 | 91 | 196 | 4.3 | 8.7 | 0.00 | 0.00 | 0.00 | 26 | 1010.0 |
| 20260831021602 | 91 | 191 | 3.5 | 7.8 | 0.00 | 0.00 | 0.00 | 26 | 1009.9 |
| 20260831021056 | 91 | 197 | 4.3 | 9.6 | 0.00 | 0.00 | 0.00 | 26 | 1009.8 |
| 20260831020556 | 91 | 188 | 6.1 | 9.6 | 0.00 | 0.00 | 0.00 | 25 | 1009.8 |
| 20260831020156 | 91 | 212 | 5.2 | 9.6 | 0.00 | 0.00 | 0.00 | 25 | 1009.7 |
| 20260831015058 | 92 | 191 | 4.3 | 8.7 | 0.00 | 0.00 | 0.00 | 25 | 1009.6 |
| 20260831014612 | 92 | 180 | 4.3 | 9.6 | 0.00 | 0.00 | 0.00 | 24 | 1009.6 |
| 20260831014058 | 92 | 184 | 4.3 | 9.6 | 0.00 | 0.00 | 0.00 | 24 | 1009.5 |
| 20260831013558 | 92 | 193 | 4.3 | 7.8 | 0.00 | 0.00 | 0.00 | 24 | 1009.5 |
| 20260831013059 | 93 | 190 | 3.5 | 11.3 | 0.00 | 0.00 | 0.00 | 23 | 1009.6 |
| 20260831012558 | 93 | 200 | 6.1 | 11.3 | 0.00 | 0.00 | 0.00 | 23 | 1009.5 |
| 20260831012059 | 93 | 193 | 4.3 | 9.6 | 0.00 | 0.00 | 0.00 | 23 | 1009.5 |
| 20260831011613 | 94 | 200 | 4.3 | 13.0 | 0.00 | 0.00 | 0.00 | 22 | 1009.4 |
| 20260831011057 | 94 | 176 | 7.8 | 13.0 | 0.00 | 0.00 | 0.00 | 22 | 1009.4 |
| 20260831010557 | 94 | 196 | 6.1 | 10.4 | 0.00 | 0.00 | 0.00 | 22 | 1009.4 |
| 20260831010058 | 94 | 184 | 4.3 | 10.4 | 0.00 | 0.00 | 0.00 | 22 | 1009.3 |
| 20260831005058 | 95 | 164 | 5.2 | 13.9 | 0.00 | 0.00 | 0.00 | 21 | 1009.2 |
| 20260831004558 | 95 | 183 | 6.1 | 13.9 | 0.00 | 0.00 | 0.00 | 21 | 1009.2 |
| 20260831004158 | 95 | 198 | 6.1 | 11.3 | 0.00 | 0.00 | 0.00 | 21 | 1009.1 |
| 20260831003557 | 95 | 203 | 7.0 | 12.2 | 0.00 | 0.00 | 0.00 | 22 | 1009.1 |
| 20260831003057 | 96 | 153 | 6.1 | 12.2 | 0.00 | 0.00 | 0.00 | 22 | 1009.1 |
| 20260831002600 | 96 | 159 | 5.2 | 12.2 | 0.00 | 0.00 | 0.00 | 22 | 1009.0 |
| 20260831002059 | 96 | 187 | 6.1 | 13.0 | 0.00 | 0.00 | 0.00 | 22 | 1009.0 |
| 20260831001604 | 96 | 164 | 5.2 | 12.2 | 0.00 | 0.00 | 0.00 | 22 | 1008.9 |
| 20260831001059 | 96 | 200 | 7.0 | 11.3 | 0.00 | 0.00 | 0.00 | 21 | 1008.9 |
| 20260831000557 | 97 | 191 | 4.3 | 10.4 | 0.00 | 0.00 | 0.00 | 19 | 1008.9 |
| 20260830235054 | 97 | 199 | 4.3 | 12.2 | 0.00 | 0.00 | 0.00 | 20 | 1008.9 |
| 20260830234553 | 97 | 187 | 5.2 | 11.3 | 0.00 | 0.00 | 0.00 | 20 | 1008.9 |
| 20260830234053 | 97 | 201 | 7.0 | 11.3 | 0.00 | 0.00 | 0.00 | 20 | 1008.9 |
| 20260830233553 | 97 | 214 | 5.2 | 11.3 | 0.00 | 0.00 | 0.00 | 20 | 1009.0 |
| 20260830233103 | 97 | 171 | 7.0 | 11.3 | 0.00 | 0.00 | 0.00 | 20 | 1009.0 |
| 20260830232556 | 97 | 193 | 7.0 | 13.9 | 0.00 | 0.00 | 0.00 | 21 | 1008.9 |
| 20260830232053 | 97 | 219 | 8.7 | 13.9 | 0.00 | 0.00 | 0.00 | 21 | 1009.0 |
| 20260830231558 | 98 | 198 | 8.7 | 13.0 | 0.00 | 0.00 | 0.00 | 21 | 1008.9 |
| 20260830231052 | 97 | 191 | 6.1 | 16.5 | 0.00 | 0.00 | 0.00 | 21 | 1009.0 |
| 20260830230552 | 97 | 190 | 10.4 | 16.5 | 0.00 | 0.00 | 0.00 | 21 | 1009.0 |
| 20260830230053 | 97 | 193 | 8.7 | 14.8 | 0.00 | 0.00 | 0.00 | 21 | 1008.9 |